Amateur Radio Satellites - All Passes

Search period start: 19 June 2013 15:32
Search period end: 20 June 2013 15:32
Location: Igloolik, 69.3800°N, 81.8000°W

Satellite Date Start Highest point End Downlink Frequencies (MHz)
Time Altitude Azimuth
OPAL 19 Jun 15:35:41 15:39:58 30° 341° (NNW) 15:44:15 ?
JAS-1B 19 Jun 15:36:01 15:41:22 36° 29° (NNE) 15:46:30 435.800 - 435.900 CW/SSB
Gurwin Techsat 1B 19 Jun 15:37:32 15:42:33 40° 264° (W) 15:47:34 435.225 FM
ITAMSAT 1 19 Jun 15:43:11 15:46:09 15° 287° (WNW) 15:49:08 435.822 SSB
AO-27 19 Jun 15:44:30 15:47:22 15° 288° (WNW) 15:50:16 436.795 MHz FM
HO-68 19 Jun 16:01:43 16:08:13 39° 5° (N) 16:14:43 435.675 MHz FM
JAS-2 19 Jun 16:03:31 16:08:44 28° 7° (N) 16:13:29 435.800 - 435.900 CW/SSB, 435.910 FM
Hamsat 19 Jun 16:17:07 16:21:10 37° 46° (NE) 16:25:14 145.90 MHz
AO-Echo 19 Jun 16:18:49 16:21:39 15° 286° (WNW) 16:24:32 ?
Uribyol 2 19 Jun 16:19:54 16:20:32 10° 296° (WNW) 16:21:11 436.500 FM
Oscar 11 19 Jun 16:25:02 16:27:52 17° 6° (N) 16:30:42 145.825 FM, Beacon 2401.500 USB
AO-7 19 Jun 16:32:43 16:40:52 53° 256° (WSW) 16:49:05 29.400 - 29.500 MHz
Uosat F 19 Jun 16:37:13 16:40:53 20° 279° (W) 16:44:34 435.120 FM
TMSAT-1 19 Jun 16:37:52 16:42:21 27° 274° (W) 16:46:52 436.925 FM
SO-67 19 Jun 17:00:49 17:03:58 29° 47° (NE) 17:07:08 435.3500 MHz FM
STRAND 1 19 Jun 17:05:00 17:07:52 15° 73° (ENE) 17:10:44 ?
KITSAT 1 19 Jun 17:13:03 17:19:29 27° 116° (ESE) 17:25:56 435.175 FM
OPAL 19 Jun 17:13:50 17:17:55 26° 5° (N) 17:22:01 ?
Gurwin Techsat 1B 19 Jun 17:21:02 17:24:04 15° 288° (WNW) 17:27:06 435.225 FM
JAS-1B 19 Jun 17:25:31 17:31:37 71° 55° (NE) 17:37:17 435.800 - 435.900 CW/SSB
RS-15 19 Jun 17:27:15 17:38:31 68° 198° (SSW) 17:49:20 29.354 - 29.394 USB, Beacon 29.352 USB
JAS-2 19 Jun 17:46:47 17:52:44 37° 32° (NNE) 17:58:04 435.800 - 435.900 CW/SSB, 435.910 FM
HO-68 19 Jun 17:48:07 17:54:58 50° 31° (NNE) 18:01:50 435.675 MHz FM
Hamsat 19 Jun 17:52:37 17:57:02 83° 249° (WSW) 18:01:30 145.90 MHz
Oscar 11 19 Jun 17:59:30 18:03:00 24° 29° (NNE) 18:06:30 145.825 FM, Beacon 2401.500 USB
AO-7 19 Jun 18:29:13 18:35:47 25° 283° (WNW) 18:42:23 29.400 - 29.500 MHz
SO-67 19 Jun 18:33:34 18:37:11 87° 249° (WSW) 18:40:49 435.3500 MHz FM
STRAND 1 19 Jun 18:43:40 18:48:33 39° 97° (E) 18:53:25 ?
OPAL 19 Jun 18:51:28 18:55:58 35° 28° (NNE) 19:00:27 ?
KITSAT 1 19 Jun 19:05:40 19:13:23 51° 142° (SE) 19:21:09 435.175 FM
JAS-1B 19 Jun 19:16:49 19:22:47 48° 259° (W) 19:28:20 435.800 - 435.900 CW/SSB
Hamsat 19 Jun 19:29:59 19:33:44 27° 271° (W) 19:37:32 145.90 MHz
JAS-2 19 Jun 19:30:34 19:37:19 69° 55° (NE) 19:43:16 435.800 - 435.900 CW/SSB, 435.910 FM
Oscar 11 19 Jun 19:34:20 19:38:35 49° 52° (NE) 19:42:50 145.825 FM, Beacon 2401.500 USB
HO-68 19 Jun 19:35:09 19:42:21 86° 57° (ENE) 19:49:36 435.675 MHz FM
RS-15 19 Jun 19:39:06 19:49:35 47° 228° (SW) 19:59:43 29.354 - 29.394 USB, Beacon 29.352 USB
SO-67 19 Jun 20:08:13 20:11:08 23° 271° (W) 20:14:05 435.3500 MHz FM
STRAND 1 19 Jun 20:23:02 20:28:14 80° 300° (WNW) 20:33:26 ?
MaSat-1 19 Jun 20:27:00 20:30:27 24° 132° (SE) 20:33:19 437.345 MHz
OPAL 19 Jun 20:29:29 20:34:27 69° 52° (NE) 20:39:25 ?
AO-7 19 Jun 20:31:12 20:32:25 10° 313° (NW) 20:33:38 29.400 - 29.500 MHz
KITSAT 1 19 Jun 21:00:08 21:08:11 70° 169° (SSE) 21:16:17 435.175 FM
Oscar 11 19 Jun 21:10:31 21:14:51 58° 255° (WSW) 21:19:14 145.825 FM, Beacon 2401.500 USB
JAS-1B 19 Jun 21:11:05 21:15:06 18° 285° (WNW) 21:18:57 435.800 - 435.900 CW/SSB
JAS-2 19 Jun 21:15:59 21:22:43 55° 258° (WSW) 21:28:40 435.800 - 435.900 CW/SSB, 435.910 FM
HO-68 19 Jun 21:23:55 21:30:45 46° 261° (W) 21:37:39 435.675 MHz FM
AO-40 19 Jun 21:42:52 01:16:00 15° 175° (S) 04:36:39 Beacon 2401.320
RS-15 19 Jun 21:51:03 21:59:06 24° 258° (WSW) 22:07:01 29.354 - 29.394 USB, Beacon 29.352 USB
Saudisat 1A 19 Jun 21:56:03 21:57:05 11° 118° (ESE) 21:58:08 436.775 MHz
STRAND 1 19 Jun 22:02:22 22:07:05 37° 323° (NW) 22:11:49 ?
MaSat-1 19 Jun 22:07:53 22:11:52 58° 152° (SSE) 22:15:01 437.345 MHz
OPAL 19 Jun 22:08:51 22:13:40 46° 254° (WSW) 22:18:29 ?
Oscar 11 19 Jun 22:48:49 22:52:00 19° 278° (W) 22:55:11 145.825 FM, Beacon 2401.500 USB
KITSAT 1 19 Jun 22:55:14 23:03:17 68° 196° (SSW) 23:11:21 435.175 FM
JAS-2 19 Jun 23:03:56 23:09:07 23° 281° (WNW) 23:13:53 435.800 - 435.900 CW/SSB, 435.910 FM
HO-68 19 Jun 23:15:25 23:20:27 20° 287° (WNW) 23:25:30 435.675 MHz FM
Saudisat 1A 19 Jun 23:31:43 23:35:29 25° 141° (SE) 23:39:15 436.775 MHz
STRAND 1 19 Jun 23:41:15 23:45:21 24° 347° (NNW) 23:49:28 ?
MaSat-1 19 Jun 23:49:52 23:53:36 88° 350° (N) 23:56:34 437.345 MHz
OPAL 19 Jun 23:50:36 23:53:49 17° 278° (W) 23:57:02 ?
Sapphire 20 Jun 00:02:16 00:04:13 12° 106° (ESE) 00:06:09 437.095 MHz 1200 baud AX-25 AFSK
Oscar 10/S400 20 Jun 00:10:04 05:31:19 38° 148° (SSE) 09:16:08 145.825 - 145.975 CW/USB, Beacon 145.810 USB
ITAMSAT 1 20 Jun 00:19:08 00:21:05 12° 67° (ENE) 00:23:02 435.822 SSB
AO-27 20 Jun 00:20:19 00:22:25 12° 68° (ENE) 00:24:30 436.795 MHz FM
Oscar 16 20 Jun 00:37:27 00:40:48 17° 76° (ENE) 00:44:09 437.025 USB, Beacon 2401.1428
KITSAT 1 20 Jun 00:50:21 00:57:59 46° 223° (SW) 01:05:36 435.175 FM
AO-Echo 20 Jun 00:51:47 00:52:26 10° 65° (ENE) 00:53:05 ?
Uribyol 2 20 Jun 00:51:53 00:55:19 17° 76° (ENE) 00:58:43 436.500 FM
PCSat 20 Jun 01:07:40 01:11:51 23° 123° (ESE) 01:16:03 145.825 MHz
Saudisat 1A 20 Jun 01:10:07 01:14:28 42° 164° (SSE) 01:18:48 436.775 MHz
STRAND 1 20 Jun 01:19:19 01:23:23 24° 11° (N) 01:27:28 ?
Oscar 19 20 Jun 01:31:14 01:35:37 27° 87° (E) 01:39:58 437.125 CW, 437.150 USB
MaSat-1 20 Jun 01:31:59 01:35:21 73° 201° (SSW) 01:38:08 437.345 MHz
Sapphire 20 Jun 01:41:30 01:46:08 30° 130° (SE) 01:50:48 437.095 MHz 1200 baud AX-25 AFSK
ITAMSAT 1 20 Jun 01:57:37 02:02:20 32° 91° (E) 02:07:02 435.822 SSB
Gurwin Techsat 1B 20 Jun 01:58:45 02:01:21 14° 69° (ENE) 02:03:56 435.225 FM
AO-27 20 Jun 01:58:54 02:03:39 33° 92° (E) 02:08:23 436.795 MHz FM
Oscar 16 20 Jun 02:16:31 02:21:30 46° 100° (E) 02:26:27 437.025 USB, Beacon 2401.1428
SO-50 20 Jun 02:22:31 02:26:12 23° 138° (SE) 02:29:51 436.795 FM
AO-7 20 Jun 02:24:05 02:27:41 13° 55° (NE) 02:31:17 29.400 - 29.500 MHz
AO-Echo 20 Jun 02:28:37 02:32:59 29° 89° (E) 02:37:27 ?
Uribyol 2 20 Jun 02:31:05 02:36:09 46° 100° (E) 02:41:11 436.500 FM
KITSAT 1 20 Jun 02:45:39 02:51:41 24° 249° (WSW) 02:57:44 435.175 FM
Uosat F 20 Jun 02:48:57 02:52:48 21° 83° (E) 02:56:38 435.120 FM
PCSat 20 Jun 02:49:10 02:54:21 47° 146° (SSE) 02:59:33 145.825 MHz
Saudisat 1A 20 Jun 02:49:18 02:53:43 46° 187° (S) 02:58:06 436.775 MHz
STRAND 1 20 Jun 02:56:58 03:01:37 35° 35° (NE) 03:06:17 ?
TMSAT-1 20 Jun 02:57:17 03:01:11 20° 79° (E) 03:05:05 436.925 FM
Oscar 19 20 Jun 03:10:38 03:15:49 75° 111° (ESE) 03:20:57 437.125 CW, 437.150 USB
MaSat-1 20 Jun 03:14:03 03:16:43 26° 226° (SW) 03:19:03 437.345 MHz
Sapphire 20 Jun 03:23:34 03:28:52 55° 154° (SSE) 03:34:11 437.095 MHz 1200 baud AX-25 AFSK
ITAMSAT 1 20 Jun 03:37:14 03:42:33 85° 115° (ESE) 03:47:49 435.822 SSB
Gurwin Techsat 1B 20 Jun 03:38:04 03:42:59 36° 93° (E) 03:47:53 435.225 FM
AO-27 20 Jun 03:38:33 03:43:51 87° 115° (ESE) 03:49:08 436.795 MHz FM
Oscar 16 20 Jun 03:56:04 04:01:13 69° 303° (WNW) 04:06:19 437.025 USB, Beacon 2401.1428
UOSAT-12 20 Jun 04:00:55 04:02:56 13° 122° (ESE) 04:04:57 437.025 FM, 437.400 FM
SO-50 20 Jun 04:01:39 04:06:03 40° 161° (SSE) 04:10:21 436.795 FM
AO-Echo 20 Jun 04:07:28 04:12:32 78° 111° (ESE) 04:17:44 ?
Uribyol 2 20 Jun 04:10:46 04:16:00 71° 303° (WNW) 04:21:13 436.500 FM
AO-7 20 Jun 04:16:40 04:23:52 30° 84° (E) 04:31:01 29.400 - 29.500 MHz
Uosat F 20 Jun 04:27:38 04:32:40 58° 106° (ESE) 04:37:41 435.120 FM
Saudisat 1A 20 Jun 04:28:45 04:32:51 32° 210° (SSW) 04:36:53 436.775 MHz
PCSat 20 Jun 04:32:01 04:37:27 69° 171° (S) 04:42:52 145.825 MHz
STRAND 1 20 Jun 04:35:15 04:40:24 74° 58° (ENE) 04:45:36 ?
TMSAT-1 20 Jun 04:37:06 04:42:20 53° 103° (ESE) 04:47:33 436.925 FM
Oscar 19 20 Jun 04:50:11 04:55:06 47° 314° (NW) 05:00:00 437.125 CW, 437.150 USB
Sapphire 20 Jun 05:06:38 05:12:04 71° 178° (S) 05:17:30 437.095 MHz 1200 baud AX-25 AFSK
ITAMSAT 1 20 Jun 05:16:55 05:21:52 43° 318° (NW) 05:26:48 435.822 SSB
Gurwin Techsat 1B 20 Jun 05:18:12 05:23:35 88° 296° (WNW) 05:28:56 435.225 FM
AO-27 20 Jun 05:18:15 05:23:11 42° 319° (NW) 05:28:06 436.795 MHz FM
Hamsat 20 Jun 05:26:14 05:27:21 11° 69° (ENE) 05:28:28 145.90 MHz
Oscar 16 20 Jun 05:35:31 05:40:07 33° 327° (NNW) 05:44:41 437.025 USB, Beacon 2401.1428
UOSAT-12 20 Jun 05:38:00 05:41:54 28° 145° (SE) 05:45:50 437.025 FM, 437.400 FM
SO-50 20 Jun 05:41:43 05:46:12 47° 184° (S) 05:50:35 436.795 FM
AO-Echo 20 Jun 05:46:28 05:51:13 44° 314° (NW) 05:56:05 ?
Uribyol 2 20 Jun 05:50:20 05:55:02 34° 326° (NNW) 05:59:44 436.500 FM
Uosat F 20 Jun 06:06:38 06:11:36 57° 309° (NW) 06:16:34 435.120 FM
Saudisat 1A 20 Jun 06:08:47 06:11:29 16° 233° (SW) 06:14:10 436.775 MHz
AO-7 20 Jun 06:10:02 06:18:24 64° 110° (ESE) 06:26:43 29.400 - 29.500 MHz
STRAND 1 20 Jun 06:15:06 06:20:01 43° 261° (W) 06:24:58 ?
PCSat 20 Jun 06:15:19 06:20:43 65° 195° (SSW) 06:26:07 145.825 MHz
TMSAT-1 20 Jun 06:17:14 06:22:30 62° 306° (NW) 06:27:45 436.925 FM
Oscar 19 20 Jun 06:29:27 06:33:41 27° 338° (NNW) 06:37:55 437.125 CW, 437.150 USB
JAS-1B 20 Jun 06:43:36 06:48:08 24° 82° (E) 06:52:51 435.800 - 435.900 CW/SSB
HO-68 20 Jun 06:49:03 06:49:30 10° 52° (NE) 06:49:56 435.675 MHz FM
Sapphire 20 Jun 06:49:57 06:55:18 59° 203° (SSW) 07:00:39 437.095 MHz 1200 baud AX-25 AFSK
ITAMSAT 1 20 Jun 06:56:14 07:00:32 26° 342° (NNW) 07:04:49 435.822 SSB
AO-27 20 Jun 06:57:34 07:01:51 26° 342° (NNW) 07:06:08 436.795 MHz FM
Gurwin Techsat 1B 20 Jun 06:58:20 07:03:18 40° 320° (NW) 07:08:14 435.225 FM
Hamsat 20 Jun 07:00:51 07:04:51 32° 92° (E) 07:08:49 145.90 MHz
Oscar 16 20 Jun 07:14:28 07:18:28 23° 350° (N) 07:22:27 437.025 USB, Beacon 2401.1428
UOSAT-12 20 Jun 07:17:04 07:21:26 44° 168° (SSE) 07:25:49 437.025 FM, 437.400 FM
SO-67 20 Jun 07:19:52 07:22:37 20° 87° (E) 07:25:21 435.3500 MHz FM
SO-50 20 Jun 07:22:04 07:26:16 34° 208° (SSW) 07:30:23 436.795 FM
AO-Echo 20 Jun 07:25:13 07:29:14 25° 337° (NNW) 07:33:20 ?
Uribyol 2 20 Jun 07:29:24 07:33:32 24° 350° (N) 07:37:39 436.500 FM
Uosat F 20 Jun 07:45:28 07:49:48 29° 332° (NNW) 07:54:09 435.120 FM
TMSAT-1 20 Jun 07:57:12 08:01:53 32° 329° (NNW) 08:06:32 436.925 FM
STRAND 1 20 Jun 07:57:28 08:00:37 16° 285° (WNW) 08:03:47 ?
PCSat 20 Jun 07:58:38 08:03:42 40° 220° (SW) 08:08:45 145.825 MHz
AO-7 20 Jun 08:03:13 08:11:35 73° 316° (NW) 08:19:55 29.400 - 29.500 MHz
Oscar 19 20 Jun 08:07:59 08:11:54 22° 2° (N) 08:15:48 437.125 CW, 437.150 USB
JAS-2 20 Jun 08:09:42 08:13:11 16° 69° (ENE) 08:16:29 435.800 - 435.900 CW/SSB, 435.910 FM
Sapphire 20 Jun 08:33:18 08:38:07 33° 227° (SW) 08:42:55 437.095 MHz 1200 baud AX-25 AFSK
JAS-1B 20 Jun 08:34:26 08:40:06 64° 108° (ESE) 08:46:05 435.800 - 435.900 CW/SSB
HO-68 20 Jun 08:34:28 08:40:15 25° 80° (E) 08:46:01 435.675 MHz FM
ITAMSAT 1 20 Jun 08:34:47 08:38:53 24° 6° (N) 08:42:58 435.822 SSB
AO-27 20 Jun 08:36:07 08:40:13 24° 7° (N) 08:44:19 436.795 MHz FM
Hamsat 20 Jun 08:36:57 08:41:24 83° 295° (WNW) 08:45:49 145.90 MHz
Gurwin Techsat 1B 20 Jun 08:38:03 08:42:22 26° 344° (NNW) 08:46:40 435.225 FM
Oscar 11 20 Jun 08:44:33 08:46:58 14° 76° (ENE) 08:49:22 145.825 FM, Beacon 2401.500 USB
Oscar 16 20 Jun 08:52:34 08:56:39 24° 15° (NNE) 09:00:44 437.025 USB, Beacon 2401.1428
SO-67 20 Jun 08:53:02 08:56:40 75° 109° (ESE) 09:00:17 435.3500 MHz FM
UOSAT-12 20 Jun 08:56:47 09:01:09 45° 192° (SSW) 09:05:33 437.025 FM, 437.400 FM
SO-50 20 Jun 09:02:53 09:05:53 17° 231° (SW) 09:08:50 436.795 FM
AO-Echo 20 Jun 09:03:14 09:06:52 21° 1° (N) 09:10:34 ?
Uribyol 2 20 Jun 09:07:38 09:11:51 25° 15° (NNE) 09:16:03 436.500 FM
Uosat F 20 Jun 09:23:41 09:27:33 23° 356° (N) 09:31:25 435.120 FM
TMSAT-1 20 Jun 09:36:36 09:40:44 24° 354° (N) 09:44:52 436.925 FM
PCSat 20 Jun 09:42:19 09:46:01 19° 243° (WSW) 09:49:41 145.825 MHz
Oscar 19 20 Jun 09:45:48 09:50:09 28° 26° (NNE) 09:54:29 437.125 CW, 437.150 USB
JAS-2 20 Jun 09:54:31 10:00:06 43° 96° (E) 10:05:10 435.800 - 435.900 CW/SSB, 435.910 FM
AO-7 20 Jun 09:55:49 10:03:48 51° 343° (NNW) 10:11:46 29.400 - 29.500 MHz
OPAL 20 Jun 10:04:09 10:07:26 17° 83° (E) 10:10:42 ?
ITAMSAT 1 20 Jun 10:12:44 10:17:20 32° 30° (NNE) 10:21:56 435.822 SSB
Hamsat 20 Jun 10:13:13 10:17:10 33° 317° (NW) 10:21:06 145.90 MHz
AO-27 20 Jun 10:14:05 10:18:42 32° 30° (NNE) 10:23:19 436.795 MHz FM
Gurwin Techsat 1B 20 Jun 10:16:58 10:21:09 24° 8° (N) 10:25:19 435.225 FM
Sapphire 20 Jun 10:17:29 10:20:10 14° 250° (WSW) 10:22:50 437.095 MHz 1200 baud AX-25 AFSK
Oscar 11 20 Jun 10:20:08 10:24:22 42° 99° (E) 10:28:33 145.825 FM, Beacon 2401.500 USB
RS-15 20 Jun 10:21:59 10:30:16 24° 101° (ESE) 10:38:19 29.354 - 29.394 USB, Beacon 29.352 USB
HO-68 20 Jun 10:22:28 10:29:34 57° 105° (ESE) 10:36:39 435.675 MHz FM
JAS-1B 20 Jun 10:25:26 10:30:59 55° 313° (NW) 10:36:44 435.800 - 435.900 CW/SSB
SO-67 20 Jun 10:26:42 10:29:57 32° 311° (NW) 10:33:12 435.3500 MHz FM
Oscar 16 20 Jun 10:30:21 10:35:06 38° 38° (NE) 10:39:50 437.025 USB, Beacon 2401.1428
UOSAT-12 20 Jun 10:36:44 10:40:41 29° 215° (SW) 10:44:39 437.025 FM, 437.400 FM
AO-Echo 20 Jun 10:40:30 10:44:31 26° 25° (NNE) 10:48:39 ?
Uribyol 2 20 Jun 10:45:35 10:50:25 39° 38° (NE) 10:55:16 436.500 FM
Uosat F 20 Jun 11:01:07 11:05:14 26° 20° (NNE) 11:09:21 435.120 FM
TMSAT-1 20 Jun 11:15:09 11:19:28 26° 18° (NNE) 11:23:48 436.925 FM
Oscar 19 20 Jun 11:23:49 11:28:49 52° 49° (NE) 11:33:50 437.125 CW, 437.150 USB
JAS-2 20 Jun 11:39:49 11:45:46 76° 302° (WNW) 11:51:07 435.800 - 435.900 CW/SSB, 435.910 FM
OPAL 20 Jun 11:42:44 11:47:33 48° 106° (ESE) 11:52:22 ?
AO-7 20 Jun 11:47:42 11:55:35 48° 10° (N) 12:03:30 29.400 - 29.500 MHz
Hamsat 20 Jun 11:49:14 11:52:19 19° 340° (NNW) 11:55:24 145.90 MHz
ITAMSAT 1 20 Jun 11:51:06 11:56:17 62° 53° (NE) 12:01:29 435.822 SSB
AO-27 20 Jun 11:52:30 11:57:41 64° 54° (NE) 12:02:54 436.795 MHz FM
Gurwin Techsat 1B 20 Jun 11:55:21 12:00:04 33° 32° (NNE) 12:04:48 435.225 FM
Oscar 11 20 Jun 11:56:29 12:00:52 64° 302° (WNW) 12:05:13 145.825 FM, Beacon 2401.500 USB
SO-67 20 Jun 12:00:28 12:02:38 15° 333° (NNW) 12:04:47 435.3500 MHz FM
Oscar 16 20 Jun 12:08:57 12:14:09 82° 62° (ENE) 12:19:20 437.025 USB, Beacon 2401.1428
HO-68 20 Jun 12:10:29 12:17:40 74° 310° (NW) 12:24:51 435.675 MHz FM
JAS-1B 20 Jun 12:16:02 12:21:00 32° 339° (NNW) 12:26:01 435.800 - 435.900 CW/SSB
UOSAT-12 20 Jun 12:17:34 12:19:41 13° 237° (WSW) 12:21:48 437.025 FM, 437.400 FM
AO-Echo 20 Jun 12:17:56 12:22:35 49° 49° (NE) 12:27:24 ?
Uribyol 2 20 Jun 12:24:20 12:29:36 84° 62° (ENE) 12:34:54 436.500 FM
RS-15 20 Jun 12:29:03 12:39:49 46° 131° (SE) 12:50:08 29.354 - 29.394 USB, Beacon 29.352 USB
Uosat F 20 Jun 12:38:28 12:43:14 44° 44° (NE) 12:48:02 435.120 FM
TMSAT-1 20 Jun 12:53:33 12:58:32 42° 42° (NE) 13:03:32 436.925 FM
Oscar 19 20 Jun 13:03:05 13:08:14 65° 253° (WSW) 13:13:23 437.125 CW, 437.150 USB
OPAL 20 Jun 13:21:49 13:26:46 68° 309° (NW) 13:31:42 ?
Hamsat 20 Jun 13:24:27 13:27:10 16° 4° (N) 13:29:53 145.90 MHz
JAS-2 20 Jun 13:24:55 13:30:25 38° 327° (NNW) 13:35:24 435.800 - 435.900 CW/SSB, 435.910 FM
ITAMSAT 1 20 Jun 13:30:52 13:36:01 53° 257° (WSW) 13:41:11 435.822 SSB
AO-27 20 Jun 13:32:20 13:37:27 52° 257° (WSW) 13:42:37 436.795 MHz FM
Oscar 11 20 Jun 13:32:52 13:36:37 28° 324° (NW) 13:40:21 145.825 FM, Beacon 2401.500 USB
SO-67 20 Jun 13:33:56 13:34:55 11° 356° (N) 13:35:54 435.3500 MHz FM
Gurwin Techsat 1B 20 Jun 13:34:15 13:39:32 66° 56° (NE) 13:44:51 435.225 FM
AO-7 20 Jun 13:39:24 13:47:38 65° 36° (NE) 13:55:54 29.400 - 29.500 MHz
Oscar 16 20 Jun 13:49:13 13:54:02 38° 265° (W) 13:58:52 437.025 USB, Beacon 2401.1428
AO-Echo 20 Jun 13:56:36 14:01:24 66° 253° (WSW) 14:06:23 ?
HO-68 20 Jun 13:58:07 14:04:51 45° 336° (NNW) 14:11:35 435.675 MHz FM
Uribyol 2 20 Jun 14:04:46 14:09:39 37° 265° (W) 14:14:32 436.500 FM
JAS-1B 20 Jun 14:05:43 14:10:32 28° 7° (N) 14:15:18 435.800 - 435.900 CW/SSB
Uosat F 20 Jun 14:16:51 14:21:55 80° 247° (WSW) 14:27:01 435.120 FM
TMSAT-1 20 Jun 14:32:54 14:38:15 88° 245° (WSW) 14:43:38 436.925 FM
RS-15 20 Jun 14:39:28 14:50:53 67° 161° (SSE) 15:01:48 29.354 - 29.394 USB, Beacon 29.352 USB
Oscar 19 20 Jun 14:44:26 14:48:34 24° 276° (W) 14:52:43 437.125 CW, 437.150 USB
Hamsat 20 Jun 14:58:43 15:02:05 22° 27° (NNE) 15:05:27 145.90 MHz
OPAL 20 Jun 15:00:46 15:05:14 35° 332° (NNW) 15:09:42 ?
SO-67 20 Jun 15:05:29 15:07:09 13° 19° (NNE) 15:08:48 435.3500 MHz FM
Oscar 11 20 Jun 15:08:53 15:11:50 18° 347° (NNW) 15:14:47 145.825 FM, Beacon 2401.500 USB
JAS-2 20 Jun 15:09:20 15:14:25 28° 353° (N) 15:19:03 435.800 - 435.900 CW/SSB, 435.910 FM
ITAMSAT 1 20 Jun 15:12:53 15:16:43 20° 280° (W) 15:20:33 435.822 SSB
AO-27 20 Jun 15:14:27 15:18:12 20° 281° (W) 15:21:59 436.795 MHz FM
Gurwin Techsat 1B 20 Jun 15:14:38 15:19:49 50° 259° (W) 15:25:01 435.225 FM

Developed and maintained by Chris Peat, Heavens-Above GmbH. Please read the updated FAQ before sending e-mail. Imprint. DLR
